Location: Arbon
(43.0005°N, 0.7472°E)
Time: 01:53:04
(UTC+00:00)

Cosmos 2219 - Pass Details

Date: 07 August 2020
Orbit: 834 x 860 km, 71.1° (Epoch: 19 September)

Event Time Altitude Azimuth Distance (km) Brightness Sun altitude
Exits shadow 02:27:29 30° 272° (W) 1,452 4.1 -22.0°
Maximum altitude 02:29:00 35° 304° (WNW) 1,316 4.1 -21.9°
Drops below altitude 10° 02:34:08 10° 9° (N) 2,453 6.5 -21.3°
Sets 02:36:47 0° 19° (NNE) 3,391 7.6 -21.0°
